1287187234865,17.1720
1287187294865,17.1511
1287187354865,17.2243
1287187414865,17.1700
1287187474865,17.1284
1287187534865,17.1680
1287187594865,17.1566
1287187654865,17.1790
1287187714865,17.2165
1287187774865,17.2097
1287187834865,17.2436
1287187894865,17.1698
1287187954865,17.2029
1287188014865,17.1764
1287188074865,17.1989
1287188134865,17.2491
1287188194865,17.1330
1287188254865,17.2306
1287188314865,17.2284
1287188374865,17.2454
1287188434865,17.2235
1287188494865,17.1875
1287188554865,17.2365
1287188614865,17.2063
1287188674865,17.2377
1287188734865,17.1263
1287188794865,17.2398
1287188854865,17.2079
1287188914865,17.1733
1287188974865,17.2190
1287189034865,17.2748
1287189094865,17.1841
1287189154865,17.2039
1287189214865,17.2168
1287189274865,17.2307
1287189334865,17.2337
1287189394865,17.1951
1287189454865,17.2641
1287189514865,17.1999
1287189574865,17.1829
1287189634865,17.2000
1287189694865,17.2623
1287189754865,17.1965
1287189814865,17.2116
1287189874865,17.1869
1287189934865,17.2234
1287189994865,17.3061
1287190054865,17.2375
1287190114865,17.2243
1287190174865,17.2269
1287190234865,17.2591
1287190294865,17.2355
1287190354865,17.2758
1287190414865,17.2536
1287190474865,17.2691
1287190534865,17.2296
1287190594865,17.2059
1287190654865,17.2031
1287190714865,17.1708
1287190774865,17.1673
1287190834875,17.2129
1287190894875,17.1731
1287190954875,17.1881
1287191014875,17.1616
1287191074875,17.2731
1287191134875,17.2160
1287191194875,17.1999
1287191254875,17.1761
1287191314875,17.2353
1287191374875,17.2287
1287191434875,17.2843
1287191494875,17.3031
1287191554875,17.3533
1287191614875,17.3157
1287191674875,17.3304
1287191734875,17.2690
1287191794875,17.2749
1287191854875,17.2143
1287191914875,17.2154
1287191974875,17.2683
1287192034875,17.2258
1287192094875,17.3054
1287192154875,17.2584
1287192214875,17.2721
1287192274875,17.2633
1287192334875,17.2384
1287192394875,17.2677
1287192454875,17.2672
1287192514875,17.2721
1287192574875,17.3064
1287192634875,17.2750
1287192694875,17.2708
1287192754875,17.2603
1287192814875,17.3046
1287192874875,17.3173
1287192934875,17.3014
1287192994875,17.2970
1287193054875,17.3188
1287193114875,17.3439
1287193174875,17.2927
1287193234875,17.2713
1287193294875,17.3182
1287193354875,17.2699
1287193414875,17.2449
1287193474875,17.2586
1287193534875,17.2947
1287193594875,17.2849
1287193654875,17.2538
1287193714875,17.2757
1287193774875,17.2763
1287193834875,17.2978
1287193894875,17.3134
1287193954875,17.3086
1287194014875,17.2898
1287194074875,17.3063
1287194134875,17.2776
1287194194875,17.2976
1287194254875,17.2574
1287194314875,17.2492
1287194374875,17.2554
1287194434886,17.2579
1287194494886,17.3151
1287194554886,17.2603
1287194614886,17.2700
1287194674886,17.2957
1287194734886,17.2461
1287194794886,17.2799
1287194854886,17.2518
1287194914886,17.2827
1287194974886,17.2963
1287195034886,17.2275
1287195094886,17.2772
1287195154886,17.2559
1287195214886,17.2594
1287195274886,17.2744
1287195334886,17.2479
1287195394886,17.2584
1287195454886,17.2523
1287195514886,17.2806
1287195574886,17.2086
1287195634886,17.2291
1287195694886,17.2506
1287195754886,17.2616
1287195814886,17.2579
1287195874886,17.2353
1287195934886,17.1947
1287195994886,17.1838
1287196054886,17.2235
1287196114886,17.2454
1287196174886,17.2441
1287196234886,17.2835
1287196294886,17.2584
1287196354886,17.2878
1287196414886,17.2539
1287196474886,17.2548
1287196534886,17.2686
1287196594886,17.2251
1287196654886,17.2919
1287196714886,17.2726
1287196774886,17.3023
1287196834886,17.2778
1287196894886,17.2050
1287196954886,17.2823
1287197014886,17.2825
1287197074886,17.1996
1287197134886,17.2680
1287197194886,17.2632
1287197254886,17.2435
1287197314886,17.2057
1287197374886,17.2565
1287197434886,17.2688
1287197494886,17.2302
1287197554886,17.2646
1287197614886,17.1995
1287197674886,17.2267
1287197734886,17.2760
1287197794886,17.3363
1287197854886,17.2620
1287197914886,17.2549
1287197974886,17.3238
1287198034896,17.2399
1287198094896,17.2822
1287198154896,17.2651
1287198214896,17.3127
1287198274896,17.2623
1287198334896,17.2407
1287198394896,17.2359
1287198454896,17.2628
1287198514896,17.2975
1287198574896,17.2295
1287198634896,17.3167
1287198694896,17.3126
1287198754896,17.3419
1287198814896,17.3106
1287198874896,17.3451
1287198934896,17.3435
1287198994896,17.3213
1287199054896,17.2859
1287199114896,17.2924
1287199174896,17.4217
1287199234896,17.2389
1287199294896,17.3518
1287199354896,17.2419
1287199414896,17.2501
1287199474896,17.3019
1287199534896,17.2297
1287199594896,17.2837
1287199654896,17.2538
1287199714896,17.2539
1287199774896,17.2952
1287199834896,17.2787
1287199894896,17.2338
1287199954896,17.2293
1287200014896,17.2331
1287200074896,17.2763
1287200134896,17.2362
1287200194896,17.2341
1287200254896,17.2233
1287200314896,17.1942
1287200374896,17.2259
1287200434896,17.2666
1287200494896,17.2281
1287200554896,17.2381
1287200614896,17.2409
1287200674896,17.2845
1287200734896,17.2791
1287200794896,17.2811
1287200854896,17.3011
1287200914896,17.2282
1287200974896,17.2709
1287201034896,17.2744
1287201094896,17.2902
1287201154896,17.2602
1287201214896,17.2368
1287201274896,17.2888
1287201334896,17.2787
1287201394896,17.2755
1287201454896,17.2660
1287201514896,17.3268
1287201574896,17.2725
1287201634906,17.2215
1287201694906,17.2313
1287201754906,17.3251
1287201814906,17.3176
1287201874906,17.2352
1287201934906,17.2113
1287201994906,17.2433
1287202054906,17.2347
1287202114906,17.2148
1287202174906,17.2255
1287202234906,17.2936
1287202294906,17.2031
1287202354906,17.2597
1287202414906,17.2835
1287202474906,17.2759
1287202534906,17.2840
1287202594906,17.2685
1287202654906,17.2482
1287202714906,17.2239
1287202774906,17.2817
1287202834906,17.2715
1287202894906,17.2884
1287202954906,17.2316
1287203014906,17.2645
1287203074906,17.2966
1287203134906,17.2562
1287203194906,17.2693
1287203254906,17.3202
1287203314906,17.3191
1287203374906,17.3233
1287203434906,17.3367
1287203494906,17.2793
1287203554906,17.3442
1287203614906,17.2841
1287203674906,17.2976
1287203734906,17.3303
1287203794906,17.2641
1287203854906,17.3594
1287203914906,17.2755
1287203974906,17.2716
1287204034906,17.2938
1287204094906,17.3128
1287204154906,17.2564
1287204214906,17.2017
1287204274906,17.2336
1287204334906,17.2142
1287204394906,17.2443
1287204454906,17.2612
1287204514906,17.2800
1287204574906,17.2909
1287204634906,17.2786
1287204694906,17.3246
1287204754906,17.2997
1287204814906,17.2851
1287204874906,17.2215
1287204934906,17.2936
1287204994906,17.3182
1287205054906,17.2896
1287205114906,17.3442
1287205174906,17.3320
1287205234917,17.2823
1287205294917,17.2860
1287205354917,17.3230
1287205414917,17.2924
1287205474917,17.2867
1287205534917,17.3006
1287205594917,17.2601
1287205654917,17.3229
1287205714917,17.3281
1287205774917,17.2436
1287205834917,17.2700
1287205894917,17.3136
1287205954917,17.3333
1287206014917,17.2379
1287206074917,17.3084
1287206134917,17.2558
1287206194917,17.2384
1287206254917,17.2501
1287206314917,17.3515
1287206374917,17.2975
1287206434917,17.3205
1287206494917,17.3086
1287206554917,17.3776
1287206614917,17.3607
1287206674917,17.3165
1287206734917,17.3382
1287206794917,17.3674
1287206854917,17.3401
1287206914917,17.3408
1287206974917,17.3651
1287207034917,17.3558
1287207094917,17.3741
1287207154917,17.3301
1287207214917,17.3138
1287207274917,17.3780
1287207334917,17.3652
1287207394917,17.3414
1287207454917,17.3559
1287207514917,17.2920
1287207574917,17.3363
1287207634917,17.3688
1287207694917,17.3617
1287207754917,17.3362
1287207814917,17.3282
1287207874917,17.2976
1287207934917,17.3022
1287207994917,17.2868
1287208054917,17.2580
1287208114917,17.3039
1287208174917,17.3372
1287208234917,17.3080
1287208294917,17.3274
1287208354917,17.3376
1287208414917,17.2907
1287208474917,17.3435
1287208534917,17.2886
1287208594917,17.3229
1287208654917,17.2961
1287208714917,17.2903
1287208774917,17.3256
1287208834927,17.3196
1287208894927,17.2947
1287208954927,17.2959
1287209014927,17.2906
1287209074927,17.2534
1287209134927,17.2631
1287209194927,17.2215
1287209254927,17.2976
1287209314927,17.2335
1287209374927,17.2199
1287209434927,17.1935
1287209494927,17.2989
1287209554927,17.2308
1287209614927,17.2346
1287209674927,17.2756
1287209734927,17.2803
1287209794927,17.2166
1287209854927,17.2840
1287209914927,17.2415
1287209974927,17.2706
1287210034927,17.2861
1287210094927,17.3241
1287210154927,17.3199
1287210214927,17.3155
1287210274927,17.3208
1287210334927,17.2413
1287210394927,17.2572
1287210454927,17.2722
1287210514927,17.2513
1287210574927,17.2857
1287210634927,17.2742
1287210694927,17.2650
1287210754927,17.2845
1287210814927,17.2639
1287210874927,17.2354
1287210934927,17.3260
1287210994927,17.3162
1287211054927,17.2207
1287211114927,17.2854
1287211174927,17.2970
1287211234927,17.2859
1287211294927,17.2852
1287211354927,17.2800
1287211414927,17.2711
1287211474927,17.2616
1287211534927,17.2475
1287211594927,17.2852
1287211654927,17.3198
1287211714927,17.2362
1287211774927,17.2749
1287211834927,17.2656
1287211894927,17.2446
1287211954927,17.2568
1287212014927,17.2157
1287212074927,17.2748
1287212134927,17.2611
1287212194927,17.2707
1287212254927,17.3030
1287212314927,17.2760
1287212374927,17.2613
1287212434937,17.2945
1287212494937,17.2558
1287212554937,17.2017
1287212614937,17.2297
1287212674937,17.2277
1287212734937,17.2594
1287212794937,17.2495
1287212854937,17.2047
1287212914937,17.2587
1287212974937,17.2727
1287213034937,17.2702
1287213094937,17.2931
1287213154937,17.2853
1287213214937,17.2404
1287213274937,17.2263
1287213334937,17.2230
1287213394937,17.2455
1287213454937,17.2426
1287213514937,17.2526
1287213574937,17.2355
1287213634937,17.2078
1287213694938,17.2241
1287213754938,17.3041
1287213814937,17.2017
1287213874937,17.2284
1287213934937,17.2624
1287213994937,17.2443
1287214054937,17.2785
1287214114937,17.3080
1287214174937,17.2213
1287214234937,17.2705
1287214294937,17.2597
1287214354937,17.2337
1287214414937,17.2919
1287214474937,17.2297
1287214534937,17.1942
1287214594937,17.2025
1287214654937,17.2281
1287214714937,17.2538
1287214774937,17.2084
1287214834937,17.1744
1287214894937,17.2162
1287214954937,17.2153
1287215014938,17.1502
1287215074938,17.2323
1287215134937,17.1900
1287215194937,17.1470
1287215254937,17.1479
1287215314937,17.1767
1287215374937,17.2280
1287215434937,17.1826
1287215494937,17.1834
1287215554937,17.1852
1287215614937,17.2320
1287215674937,17.2220
1287215734937,17.1623
1287215794937,17.1980
1287215854937,17.2525
1287215914937,17.1870
1287215974937,17.2241
1287216034948,17.2160
1287216094948,17.2098
1287216154948,17.2324
1287216214948,17.2186
1287216274948,17.1760
1287216334948,17.2149
1287216394948,17.1819
1287216454948,17.2125
1287216514948,17.1345
1287216574948,17.1990
1287216634948,17.1908
1287216694948,17.1853
1287216754948,17.1870
1287216814948,17.2227
1287216874948,17.1770
1287216934948,17.1923
1287216994948,17.1581
1287217054948,17.2190
1287217114948,17.2154
1287217174948,17.1803
1287217234948,17.1990
1287217294948,17.2344
1287217354948,17.2106
1287217414948,17.1914
1287217474948,17.1895
1287217534948,17.1344
1287217594948,17.1741
1287217654948,17.1189
1287217714948,17.1274
1287217774948,17.0976
1287217834948,17.1482
1287217894948,17.1540
1287217954948,17.1667
1287218014948,17.1572
1287218074948,17.1476
1287218134948,17.1256
1287218194948,17.1461
1287218254948,17.0951
1287218314948,17.1882
1287218374948,17.1017
1287218434948,17.1506
1287218494948,17.1106
1287218554948,17.1763
1287218614948,17.1286
1287218674948,17.1605
1287218734948,17.1574
1287218794948,17.0966
1287218854948,17.1118
1287218914948,17.1926
1287218974948,17.1435
1287219034948,17.0967
1287219094948,17.1353
1287219154948,17.1278
1287219214948,17.1456
1287219274948,17.1160
1287219334948,17.1881
1287219394948,17.1786
1287219454948,17.1319
1287219514948,17.1719
1287219574948,17.1774
1287219634959,17.1492
1287219694959,17.1604
1287219754959,17.1809
1287219814959,17.1557
1287219874959,17.1321
1287219934959,17.1356
1287219994959,17.1194
1287220054959,17.1777
1287220114959,17.1304
1287220174959,17.1434
1287220234959,17.1083
1287220294959,17.0665
1287220354959,17.1078
1287220414959,17.1338
1287220474959,17.1166
1287220534959,17.0732
1287220594959,17.0944
1287220654959,17.1320
1287220714959,17.0980
1287220774959,17.0685
1287220834959,17.0856
1287220894959,17.1086
1287220954959,17.0565
1287221014959,17.0646
1287221074959,17.0330
1287221134959,17.0747
1287221194959,17.0590
1287221254959,17.0636
1287221314959,17.1081
1287221374959,17.0453
1287221434959,17.0323
1287221494959,17.0423
1287221554959,17.1302
1287221614959,17.0770
1287221674959,17.1274
1287221734959,17.0651
1287221794959,17.0517
1287221854959,17.0120
1287221914959,17.0251
1287221974959,17.0492
1287222034959,17.0428
1287222094959,17.0922
1287222154959,17.1328
1287222214959,17.0599
1287222274959,17.0765
1287222334959,17.0746
1287222394959,17.0067
1287222454959,17.0541
1287222514959,17.0626
1287222574959,17.0290
1287222634959,17.0932
1287222694959,17.1102
1287222754959,17.0557
1287222814959,17.0614
1287222874959,17.0599
1287222934959,17.0685
1287222994959,17.1076
1287223054959,17.0808
1287223114959,17.0745
1287223174959,17.0307
1287223234970,17.0576
1287223294970,17.0254
1287223354970,17.0917
1287223414970,17.0279
1287223474970,17.0655
1287223534970,17.0807
1287223594970,17.0277
1287223654970,17.0807
1287223714970,17.0968
1287223774970,17.0686
1287223834970,17.0837
1287223894970,17.0893
1287223954970,17.0683
1287224014970,17.1073
1287224074970,17.0962
1287224134970,17.0615
1287224194970,17.1024
1287224254970,17.0528
1287224314970,17.0854
1287224374970,17.1010
1287224434970,17.1114
1287224494970,17.0391
1287224554970,17.0983
1287224614970,17.0861
1287224674970,17.1311
1287224734970,17.1057
1287224794970,17.0853
1287224854970,17.0991
1287224914970,17.1437
1287224974970,17.0945
1287225034970,17.1071
1287225094970,17.1300
1287225154970,17.1221
1287225214970,17.1161
1287225274970,17.1158
1287225334970,17.0901
1287225394970,17.0882
1287225454970,17.1187
1287225514970,17.0859
1287225574970,17.0328
1287225634970,17.0961
1287225694970,17.0564
1287225754970,17.0955
1287225814970,17.1218
1287225874970,17.0502
1287225934970,17.0914
1287225994970,17.1190
1287226054970,17.0601
1287226114970,17.0999
1287226174970,17.0749
1287226234970,17.0480
1287226294970,17.1206
1287226354970,17.0802
1287226414970,17.1142
1287226474970,17.1196
1287226534970,17.1043
1287226594970,17.0533
1287226654970,17.0348
1287226714970,17.0505
1287226774970,17.0203
1287226834981,17.0839
1287226894981,17.0291
1287226954981,17.0708
1287227014981,17.0578
1287227074981,17.1086
1287227134981,17.0897
1287227194981,17.1188
1287227254981,17.0146
1287227314981,17.0829
1287227374981,17.0999
1287227434981,17.0731
1287227494981,17.0206
1287227554981,17.0431
1287227614981,17.0400
1287227674981,17.1111
1287227734981,17.0797
1287227794981,17.0816
1287227854981,17.0208
1287227914981,17.0496
1287227974981,17.0494
1287228034981,17.0329
1287228094981,17.0078
1287228154981,17.0588
1287228214981,17.0591
1287228274981,17.0595
1287228334981,17.0524
1287228394981,17.0527
1287228454981,16.9933
1287228514981,17.0218
1287228574981,17.0287
1287228634981,17.0794
1287228694981,17.0279
1287228754981,17.0637
1287228814981,17.0894
1287228874981,17.0107
1287228934981,17.0390
1287228994981,17.0459
1287229054981,17.0081
1287229114981,17.0288
1287229174981,16.9874
1287229234981,17.0194
1287229294981,16.9707
1287229354981,16.9743
1287229414981,16.9631
1287229474981,16.9792
1287229534981,17.0367
1287229594981,17.0119
1287229654981,16.9957
1287229714981,16.9864
1287229774981,17.0035
1287229834981,17.0570
1287229894981,17.0493
1287229954981,17.0587
1287230014981,17.0432
1287230074981,17.0595
1287230134981,17.0389
1287230194981,17.0332
1287230254981,17.0424
1287230314981,17.0346
1287230374981,17.0151
1287230434992,17.0219
1287230494992,17.0544
1287230554992,16.9921
1287230614992,17.0782
1287230674992,17.0072
1287230734992,17.0574
1287230794992,17.0471
1287230854992,17.0575
1287230914992,17.0688
1287230974992,17.0603
1287231034992,17.0203
1287231094992,17.0195
1287231154992,17.0051
1287231214992,17.0727
1287231274992,17.0050
1287231334992,17.0736
1287231394992,16.9990
1287231454992,17.0323
1287231514992,17.0224
1287231574992,17.0193
1287231634992,17.0399
1287231694992,17.0337
1287231754992,17.0684
1287231814992,17.0727
1287231874992,17.0550
1287231934992,16.9975
1287231994992,17.0268
1287232054992,17.0269
1287232114992,17.0621
1287232174992,17.0462
1287232234992,17.0658
1287232294992,17.0878
1287232354992,17.0348
1287232414992,17.0390
1287232474992,17.0199
1287232534992,17.0166
1287232594992,17.1006
1287232654992,17.0817
1287232714992,17.0250
1287232774992,17.0491
1287232834992,17.0870
1287232894992,17.0444
1287232954992,17.1107
1287233014992,17.0526
1287233074992,17.0613
1287233134992,17.0945
1287233194992,17.0786
1287233254992,17.0460
1287233314992,17.0207
1287233374992,17.0670
1287233434992,17.0698
1287233494992,17.0504
1287233554992,17.0266
1287233614992,17.1123
1287233674992,17.0669
1287233734992,17.1140
1287233794992,17.0133
1287233854992,17.0812
1287233914992,17.0768
1287233974992,17.1140
1287234025004,17.0838
1287234085004,17.1294
1287234145004,17.0621
1287234205004,17.1107
1287234265004,17.1058
1287234325004,17.0299
1287234385004,17.0537
1287234445004,17.1011
1287234505004,17.0782
1287234565004,17.1008
1287234625004,17.0876
1287234685004,17.0734
1287234745004,17.1018
1287234805004,17.1122
1287234865004,17.0711
1287234925004,17.1085
1287234985004,17.1052
1287235045004,17.0361
1287235105004,17.0524
1287235165004,17.0389
1287235225004,17.0841
1287235285004,17.0987
1287235345004,17.0988
1287235405004,17.0715
1287235465004,17.0295
1287235525004,17.0325
1287235585004,17.0610
1287235645004,17.0049
1287235705004,17.0253
1287235765004,17.0814
1287235825004,17.1099
1287235885004,17.0749
1287235945004,17.0984
1287236005004,17.1245
1287236065004,17.0772
1287236125004,17.0439
1287236185004,17.0959
1287236245004,17.0866
1287236305004,17.0834
1287236365004,17.0827
1287236425004,17.0631
1287236485004,17.0345
1287236545004,17.1109
1287236605004,17.0595
1287236665004,17.0823
1287236725004,17.0594
1287236785004,17.0243
1287236845004,17.0113
1287236905004,17.0166
1287236965004,17.0431
1287237025004,17.0488
1287237085004,17.0062
1287237145004,17.0783
1287237205004,17.0744
1287237265004,17.0834
1287237325004,16.9990
1287237385004,17.1133
1287237445004,17.0826
1287237505004,17.0285
1287237565004,17.0680
1287237625016,17.0878
1287237685016,17.0715
1287237745016,17.0755
1287237805016,17.0958
1287237865016,16.9977
1287237925016,17.0116
1287237985016,17.0714
1287238045016,17.0955
1287238105016,17.0747
1287238165016,17.0401
1287238225016,17.0291
1287238285016,17.0906
1287238345016,17.1192
1287238405016,17.1257
1287238465016,17.1257
1287238525016,17.0601
1287238585016,17.1410
1287238645016,17.1126
1287238705016,17.0700
1287238765016,17.0848
1287238825016,17.1105
1287238885016,17.1220
1287238945016,17.1049
1287239005016,17.1001
1287239065016,17.0546
1287239125016,17.0822
1287239185016,17.0504
1287239245016,17.1274
1287239305016,17.0904
1287239365016,17.0921
1287239425016,17.0932
1287239485016,17.0634
1287239545016,17.1060
1287239605016,17.0795
1287239665016,17.1152
1287239725016,17.0920
1287239785016,17.0818
1287239845015,17.1174
1287239905016,17.0915
1287239965016,17.0703
1287240025016,17.1405
1287240085016,17.1066
1287240145016,17.1089
1287240205016,17.0785
1287240265016,17.1175
1287240325016,17.0938
1287240385016,17.0626
1287240445016,17.0730
1287240505016,17.0353
1287240565016,17.0859
1287240625016,16.9982
1287240685016,17.0589
1287240745016,17.0757
1287240805016,17.0806
1287240865016,17.1195
1287240925016,17.0927
1287240985016,17.1206
1287241045016,17.1260
1287241105016,17.0434
1287241165016,17.0815
1287241225028,17.0633
1287241285028,17.0126
1287241345028,17.0960
1287241405028,17.1226
1287241465028,17.0856
1287241525028,17.0122
1287241585028,17.0810
1287241645028,17.0513
1287241705028,17.0752
1287241765028,17.1348
1287241825028,17.0795
1287241885028,17.0741
1287241945028,17.0397
1287242005028,17.0732
1287242065028,17.1169
1287242125028,17.0598
1287242185028,17.0286
1287242245028,17.0432
1287242305028,17.0156
1287242365028,17.0793
1287242425028,17.1199
1287242485028,17.0640
1287242545028,17.1211
1287242605028,17.1044
1287242665028,17.0514
1287242725028,17.0993
1287242785028,17.1023
1287242845028,17.0818
1287242905028,17.0738
1287242965028,17.0750
1287243025028,17.0822
1287243085028,17.0279
1287243145028,17.1434
1287243205028,17.1380
1287243265028,17.0831
1287243325028,17.1154
1287243385028,17.1022
1287243445028,17.0783
1287243505028,17.1011
1287243565028,17.0812
1287243625028,17.0818
1287243685028,17.1076
1287243745028,17.1247
1287243805028,17.1107
1287243865028,17.1204
1287243925028,17.1280
1287243985028,17.1330
1287244045028,17.0979
1287244105028,17.1131
1287244165028,17.1243
1287244225028,17.0787
1287244285028,17.1074
1287244345028,17.1693
1287244405028,17.0930
1287244465028,17.0956
1287244525028,17.0846
1287244585028,17.0906
1287244645028,17.1409
1287244705028,17.1211
1287244765028,17.0930
1287244825040,17.0501
1287244885040,17.0832
1287244945040,17.1255
1287245005040,17.1004
1287245065040,17.0597
1287245125040,17.1097
1287245185040,17.0599
1287245245040,17.0793
1287245305040,17.1065
1287245365040,17.1205
1287245425040,17.0851
1287245485040,17.0714
1287245545040,17.0497
1287245605040,17.1019
1287245665040,17.0987
1287245725040,17.0348
1287245785040,17.0376
1287245845040,17.0634
1287245905040,17.0598
1287245965040,17.0918
1287246025040,17.0884
1287246085040,17.0820
1287246145040,17.0646
1287246205040,17.0876
1287246265040,17.0831
1287246325040,17.0832
1287246385040,17.1223
1287246445040,17.0907
1287246505040,17.0739
1287246565040,17.1201
1287246625040,17.1255
1287246685040,17.0810
1287246745040,17.0602
1287246805040,17.0533
1287246865040,17.1051
1287246925040,17.1255
1287246985040,17.1138
1287247045040,17.0570
1287247105040,17.0934
1287247165040,17.0914
1287247225040,17.0930
1287247285040,17.1161
1287247345040,17.1605
1287247405040,17.1603
1287247465040,17.1488
1287247525040,17.1097
1287247585040,17.1134
1287247645040,17.1550
1287247705040,17.1304
1287247765040,17.1248
1287247825040,17.1311
1287247885040,17.1392
1287247945040,17.1014
1287248005040,17.1917
1287248065040,17.1160
1287248125040,17.2017
1287248185040,17.2495
1287248245040,17.1834
1287248305040,17.1705
1287248365040,17.1165
1287248425052,17.2361
1287248485052,17.2059
1287248545052,17.2036
1287248605052,17.2588
1287248665052,17.1526
1287248725052,17.1831
1287248785052,17.1398
1287248845052,17.1818
1287248905052,17.1856
1287248965052,17.1780
1287249025052,17.2027
1287249085052,17.1203
1287249145052,17.1107
1287249205052,17.0943
1287249265052,17.0990
1287249325052,17.1208
1287249385052,17.2016
1287249445052,17.1573
1287249505052,17.1100
1287249565052,17.1055
1287249625052,17.1368
1287249685052,17.0947
1287249745052,17.0993
1287249805052,17.0857
1287249865052,17.0816
1287249925052,17.0536
1287249985052,17.0639
1287250045052,17.0503
1287250105052,17.0844
1287250165052,17.0207
1287250225052,17.0568
1287250285052,17.0549
1287250345052,17.1188
1287250405052,17.0616
1287250465052,17.0244
1287250525052,17.0428
1287250585052,17.0925
1287250645052,17.0905
1287250705052,17.0791
1287250765052,17.0640
1287250825052,17.0941
1287250885052,17.0507
1287250945052,17.0652
1287251005052,17.0407
1287251065052,17.0139
1287251125052,17.0168
1287251185052,17.0096
1287251245052,17.0840
1287251305052,17.0016
1287251365052,17.0218
1287251425052,17.0793
1287251485052,16.9981
1287251545052,17.0750
1287251605052,17.0079
1287251665052,17.0336
1287251725052,17.0022
1287251785052,17.0054
1287251845052,17.0531
1287251905052,16.9866
1287251965052,17.0570
1287252025064,17.0896
1287252085064,17.0455
1287252145064,17.0605
1287252205064,17.0504
1287252265064,16.9861
1287252325064,17.0050
1287252385064,17.0371
1287252445064,17.0210
1287252505064,17.0486
1287252565064,16.9891